Time,TemperatureF,DewpointF,PressureIn,WindDirection,WindDirectionDegrees,WindSpeedMPH,WindSpeedGustMPH,Humidity,HourlyPrecipIn,Conditions,Clouds,dailyrainin,SoftwareType,DateUTC
2013-07-11 00:01:00,67.0,64.0,30.06,North,0,0.0,5.0,91,0.00,,,0.86,,2013-07-11 04:01:00,
2013-07-11 00:12:00,67.0,65.0,30.06,West,277,1.0,8.0,93,0.00,,,0.86,,2013-07-11 04:12:00,
2013-07-11 00:32:00,67.0,65.0,30.06,West,261,1.0,7.0,93,0.00,,,0.86,,2013-07-11 04:32:00,
2013-07-11 00:42:00,67.0,65.0,30.06,West,278,5.0,9.0,93,0.00,,,0.86,,2013-07-11 04:42:00,
2013-07-11 01:02:00,66.0,64.0,30.05,WNW,289,3.0,9.0,94,0.00,,,0.86,,2013-07-11 05:02:00,
2013-07-11 01:32:00,66.0,64.0,30.03,West,271,2.0,8.0,94,0.00,,,0.86,,2013-07-11 05:32:00,
2013-07-11 01:43:00,66.0,64.0,30.03,North,0,0.0,5.0,94,0.00,,,0.86,,2013-07-11 05:43:00,
2013-07-11 01:52:00,66.0,64.0,30.03,North,0,0.0,5.0,94,0.00,,,0.86,,2013-07-11 05:52:00,
2013-07-11 02:12:00,66.0,63.0,30.03,North,0,0.0,3.0,91,0.00,,,0.86,,2013-07-11 06:12:00,
2013-07-11 02:22:00,66.0,63.0,30.02,North,0,0.0,4.0,91,0.00,,,0.86,,2013-07-11 06:22:00,
2013-07-11 02:32:00,66.0,63.0,30.02,North,0,0.0,4.0,91,0.00,,,0.86,,2013-07-11 06:32:00,
2013-07-11 02:43:00,66.0,64.0,30.02,WNW,285,1.0,7.0,92,0.00,,,0.86,,2013-07-11 06:43:00,
2013-07-11 02:52:00,66.0,64.0,30.02,WNW,292,3.0,8.0,92,0.00,,,0.86,,2013-07-11 06:52:00,
2013-07-11 03:02:00,66.0,64.0,30.02,WNW,292,3.0,8.0,92,0.00,,,0.86,,2013-07-11 07:02:00,
2013-07-11 03:12:00,66.0,63.0,30.01,West,276,3.0,10.0,91,0.00,,,0.86,,2013-07-11 07:12:00,
2013-07-11 03:32:00,67.0,63.0,30.01,WNW,282,2.0,6.0,88,0.00,,,0.86,,2013-07-11 07:32:00,
2013-07-11 03:45:00,66.0,63.0,30.02,WNW,283,6.0,10.0,90,0.00,,,0.86,,2013-07-11 07:45:00,
2013-07-11 03:53:00,67.0,63.0,30.01,North,0,0.0,7.0,87,0.00,,,0.86,,2013-07-11 07:53:00,
2013-07-11 04:02:00,67.0,63.0,30.01,North,0,0.0,7.0,87,0.00,,,0.86,,2013-07-11 08:02:00,
2013-07-11 04:12:00,68.0,62.0,30.01,North,0,0.0,4.0,81,0.00,,,0.86,,2013-07-11 08:12:00,
2013-07-11 04:22:00,68.0,62.0,30.01,North,0,0.0,4.0,81,0.00,,,0.86,,2013-07-11 08:22:00,
2013-07-11 04:34:00,68.0,61.0,30.01,North,359,1.0,5.0,79,0.00,,,0.86,,2013-07-11 08:34:00,
2013-07-11 04:43:00,67.0,62.0,30.01,WSW,255,1.0,7.0,83,0.00,,,0.86,,2013-07-11 08:43:00,
2013-07-11 04:53:00,67.0,61.0,30.02,West,280,3.0,9.0,82,0.00,,,0.86,,2013-07-11 08:53:00,
2013-07-11 05:03:00,67.0,61.0,30.02,West,280,3.0,9.0,82,0.00,,,0.86,,2013-07-11 09:03:00,
2013-07-11 05:12:00,68.0,62.0,30.02,WNW,289,5.0,10.0,80,0.00,,,0.86,,2013-07-11 09:12:00,
2013-07-11 05:33:00,67.0,61.0,30.02,NW,307,3.0,8.0,81,0.00,,,0.86,,2013-07-11 09:33:00,
2013-07-11 05:43:00,68.0,61.0,30.02,WNW,300,2.0,9.0,77,0.00,,,0.86,,2013-07-11 09:43:00,
2013-07-11 05:53:00,68.0,61.0,30.02,WNW,300,2.0,9.0,77,0.00,,,0.86,,2013-07-11 09:53:00,
2013-07-11 06:01:00,69.0,61.0,30.01,North,0,0.0,7.0,75,0.00,,,0.86,,2013-07-11 10:01:00,
2013-07-11 06:33:00,67.0,61.0,30.03,West,273,1.0,6.0,81,0.00,,,0.86,,2013-07-11 10:33:00,
2013-07-11 06:43:00,67.0,61.0,30.03,West,277,2.0,5.0,80,0.00,,,0.86,,2013-07-11 10:43:00,
2013-07-11 06:52:00,67.0,61.0,30.03,West,277,2.0,5.0,80,0.00,,,0.86,,2013-07-11 10:52:00,
2013-07-11 07:02:00,68.0,61.0,30.03,WNW,284,2.0,9.0,79,0.00,,,0.86,,2013-07-11 11:02:00,
2013-07-11 07:12:00,68.0,61.0,30.03,West,271,4.0,10.0,78,0.00,,,0.86,,2013-07-11 11:12:00,
2013-07-11 07:32:00,68.0,61.0,30.04,NW,306,1.0,9.0,79,0.00,,,0.86,,2013-07-11 11:32:00,
2013-07-11 07:43:00,68.0,61.0,30.04,NW,306,3.0,9.0,78,0.00,,,0.86,,2013-07-11 11:43:00,
2013-07-11 07:53:00,68.0,61.0,30.04,NW,306,3.0,9.0,78,0.00,,,0.86,,2013-07-11 11:53:00,
2013-07-11 08:01:00,68.0,61.0,30.05,West,280,2.0,10.0,78,0.00,,,0.86,,2013-07-11 12:01:00,
2013-07-11 08:33:00,68.0,61.0,30.05,WNW,303,2.0,10.0,79,0.00,,,0.86,,2013-07-11 12:33:00,
2013-07-11 08:43:00,67.0,61.0,30.05,WNW,295,3.0,11.0,80,0.00,,,0.86,,2013-07-11 12:43:00,
2013-07-11 08:54:00,67.0,61.0,30.05,WNW,295,3.0,11.0,80,0.00,,,0.86,,2013-07-11 12:54:00,
2013-07-11 09:02:00,67.0,63.0,30.05,WNW,290,3.0,10.0,86,0.00,,,0.86,,2013-07-11 13:02:00,
2013-07-11 09:13:00,67.0,63.0,30.05,West,281,5.0,11.0,88,0.00,,,0.85,,2013-07-11 13:13:00,
2013-07-11 09:23:00,67.0,63.0,30.05,West,281,5.0,11.0,88,0.00,,,0.85,,2013-07-11 13:23:00,
2013-07-11 09:34:00,66.0,63.0,30.05,West,277,2.0,10.0,89,0.00,,,0.85,,2013-07-11 13:34:00,
2013-07-11 10:05:00,67.0,63.0,30.05,WNW,291,2.0,7.0,88,0.00,,,0.85,,2013-07-11 14:05:00,
2013-07-11 10:15:00,67.0,63.0,30.06,NW,305,2.0,8.0,88,0.00,,,0.85,,2013-07-11 14:15:00,
2013-07-11 10:24:00,67.0,63.0,30.06,NW,305,2.0,8.0,88,0.00,,,0.85,,2013-07-11 14:24:00,
2013-07-11 10:35:00,68.0,64.0,30.05,NW,326,3.0,7.0,86,0.00,,,0.85,,2013-07-11 14:35:00,
2013-07-11 10:45:00,69.0,64.0,30.06,WNW,283,1.0,6.0,84,0.00,,,0.85,,2013-07-11 14:45:00,
2013-07-11 10:54:00,69.0,64.0,30.06,WNW,288,1.0,8.0,84,0.00,,,0.85,,2013-07-11 14:54:00,
2013-07-11 11:05:00,69.0,64.0,30.06,WNW,288,1.0,8.0,84,0.00,,,0.85,,2013-07-11 15:05:00,
2013-07-11 11:13:00,69.0,64.0,30.06,NW,310,1.0,7.0,84,0.00,,,0.85,,2013-07-11 15:13:00,
2013-07-11 11:38:00,70.0,64.0,30.06,WNW,303,2.0,8.0,82,0.00,,,0.85,,2013-07-11 15:38:00,
2013-07-11 11:46:00,71.0,65.0,30.05,NNW,337,1.0,5.0,81,0.00,,,0.85,,2013-07-11 15:46:00,
2013-07-11 12:06:00,72.0,65.0,30.05,WNW,301,1.0,3.0,80,0.00,,,0.85,,2013-07-11 16:06:00,
2013-07-11 12:35:00,72.0,66.0,30.05,North,0,0.0,5.0,82,0.00,,,0.85,,2013-07-11 16:35:00,
2013-07-11 12:47:00,72.0,67.0,30.05,North,0,0.0,2.0,83,0.00,,,0.85,,2013-07-11 16:47:00,
2013-07-11 12:54:00,72.0,67.0,30.05,North,0,0.0,2.0,83,0.00,,,0.85,,2013-07-11 16:54:00,
2013-07-11 13:03:00,71.0,66.0,30.05,North,0,0.0,2.0,85,0.00,,,0.85,,2013-07-11 17:03:00,
2013-07-11 13:16:00,72.0,67.0,30.05,North,0,0.0,1.0,85,0.00,,,0.85,,2013-07-11 17:16:00,
2013-07-11 13:38:00,71.0,67.0,30.04,NW,311,1.0,3.0,86,0.00,,,0.85,,2013-07-11 17:38:00,
2013-07-11 13:52:00,72.0,66.0,30.04,North,0,0.0,2.0,82,0.00,,,0.85,,2013-07-11 17:52:00,
2013-07-11 14:05:00,72.0,66.0,30.03,North,0,0.0,1.0,82,0.00,,,0.85,,2013-07-11 18:05:00,
2013-07-11 14:24:00,73.0,67.0,30.03,North,0,0.0,1.0,82,0.00,,,0.85,,2013-07-11 18:24:00,
2013-07-11 14:35:00,73.0,67.0,30.03,North,0,0.0,3.0,82,0.00,,,0.85,,2013-07-11 18:35:00,
2013-07-11 14:46:00,72.0,66.0,30.02,West,281,2.0,5.0,81,0.00,,,0.85,,2013-07-11 18:46:00,
2013-07-11 15:13:00,74.0,67.0,30.02,West,273,2.0,6.0,79,0.00,,,0.85,,2013-07-11 19:13:00,
2013-07-11 15:24:00,74.0,67.0,30.01,NW,312,2.0,6.0,78,0.00,,,0.85,,2013-07-11 19:24:00,
2013-07-11 15:39:00,74.0,67.0,30.01,NW,312,2.0,6.0,78,0.00,,,0.85,,2013-07-11 19:39:00,
2013-07-11 15:45:00,74.0,67.0,30.01,WNW,294,2.0,6.0,79,0.00,,,0.85,,2013-07-11 19:45:00,
2013-07-11 15:56:00,74.0,67.0,30.01,WNW,294,2.0,6.0,79,0.00,,,0.85,,2013-07-11 19:56:00,
2013-07-11 16:06:00,74.0,66.0,30.01,West,273,1.0,7.0,77,0.00,,,0.85,,2013-07-11 20:06:00,
2013-07-11 16:38:00,75.0,67.0,30.00,North,0,0.0,6.0,75,0.00,,,0.62,,2013-07-11 20:38:00,
2013-07-11 16:47:00,73.0,67.0,30.01,WSW,244,1.0,6.0,81,0.00,,,0.56,,2013-07-11 20:47:00,
2013-07-11 16:53:00,73.0,67.0,30.01,WSW,244,1.0,6.0,81,0.00,,,0.56,,2013-07-11 20:53:00,
2013-07-11 17:15:00,72.0,67.0,30.00,North,0,0.0,1.0,84,0.00,,,0.51,,2013-07-11 21:15:00,
2013-07-11 17:24:00,72.0,67.0,30.00,North,0,0.0,1.0,84,0.00,,,0.51,,2013-07-11 21:24:00,
2013-07-11 17:36:00,73.0,66.0,30.00,North,0,0.0,1.0,79,0.00,,,0.45,,2013-07-11 21:36:00,
2013-07-11 17:45:00,73.0,66.0,30.00,North,0,0.0,2.0,80,0.00,,,0.45,,2013-07-11 21:45:00,
2013-07-11 17:56:00,73.0,66.0,30.00,North,0,0.0,2.0,80,0.00,,,0.45,,2013-07-11 21:56:00,
2013-07-11 18:05:00,72.0,67.0,30.00,North,0,0.0,2.0,85,0.00,,,0.45,,2013-07-11 22:05:00,
2013-07-11 18:25:00,72.0,68.0,29.99,North,0,0.0,1.0,87,0.00,,,0.32,,2013-07-11 22:25:00,
2013-07-11 18:47:00,72.0,68.0,29.99,North,0,0.0,1.0,87,0.00,,,0.17,,2013-07-11 22:47:00,
2013-07-11 18:54:00,72.0,68.0,29.99,North,0,0.0,1.0,87,0.00,,,0.17,,2013-07-11 22:54:00,
2013-07-11 19:06:00,71.0,68.0,29.99,North,0,0.0,1.0,89,0.00,,,0.10,,2013-07-11 23:06:00,
2013-07-11 19:13:00,70.0,67.0,30.00,North,0,0.0,1.0,90,0.00,,,0.06,,2013-07-11 23:13:00,
2013-07-11 19:25:00,70.0,67.0,30.00,North,0,0.0,1.0,90,0.00,,,0.06,,2013-07-11 23:25:00,
2013-07-11 19:35:00,70.0,67.0,30.00,North,0,0.0,1.0,91,0.00,,,0.02,,2013-07-11 23:35:00,
2013-07-11 19:47:00,70.0,67.0,30.00,North,0,0.0,1.0,91,0.00,,,0.00,,2013-07-11 23:47:00,
2013-07-11 19:55:00,69.0,67.0,30.00,North,0,0.0,0.0,92,0.00,,,0.00,,2013-07-11 23:55:00,
2013-07-11 20:05:00,69.0,67.0,30.00,North,0,0.0,0.0,92,0.00,,,0.00,,2013-07-12 00:05:00,
2013-07-11 20:14:00,69.0,67.0,29.99,North,0,0.0,1.0,92,0.01,,,0.01,,2013-07-12 00:14:00,
2013-07-11 20:25:00,68.0,65.0,30.00,North,0,0.0,2.0,91,0.01,,,0.01,,2013-07-12 00:25:00,
2013-07-11 20:37:00,68.0,65.0,30.00,North,0,0.0,2.0,91,0.01,,,0.01,,2013-07-12 00:37:00,
2013-07-11 20:44:00,68.0,65.0,30.00,North,0,0.0,1.0,90,0.01,,,0.01,,2013-07-12 00:44:00,
2013-07-11 20:55:00,67.0,65.0,30.00,North,0,0.0,1.0,92,0.01,,,0.01,,2013-07-12 00:55:00,
2013-07-11 21:05:00,67.0,65.0,30.00,North,0,0.0,1.0,92,0.01,,,0.01,,2013-07-12 01:05:00,
2013-07-11 21:26:00,66.0,64.0,30.00,North,0,0.0,1.0,92,0.00,,,0.01,,2013-07-12 01:26:00,
2013-07-11 21:37:00,66.0,64.0,30.00,North,0,0.0,0.0,94,0.00,,,0.01,,2013-07-12 01:37:00,
2013-07-11 21:46:00,66.0,65.0,30.00,North,0,0.0,0.0,95,0.00,,,0.01,,2013-07-12 01:46:00,
2013-07-11 22:07:00,66.0,65.0,30.00,North,0,0.0,1.0,95,0.00,,,0.01,,2013-07-12 02:07:00,
2013-07-11 22:16:00,66.0,65.0,30.00,North,0,0.0,0.0,95,0.00,,,0.01,,2013-07-12 02:16:00,
2013-07-11 22:36:00,66.0,64.0,30.02,NW,324,5.0,10.0,94,0.01,,,0.02,,2013-07-12 02:36:00,
2013-07-11 22:45:00,63.0,61.0,30.01,North,0,0.0,6.0,93,0.50,,,0.51,,2013-07-12 02:45:00,
2013-07-11 22:53:00,63.0,61.0,30.01,North,0,0.0,6.0,93,0.50,,,0.51,,2013-07-12 02:53:00,
2013-07-11 23:04:00,62.0,61.0,30.01,North,0,0.0,3.0,96,0.87,,,0.88,,2013-07-12 03:04:00,
2013-07-11 23:14:00,62.0,61.0,30.01,North,0,0.0,1.0,96,0.91,,,0.92,,2013-07-12 03:14:00,
2013-07-11 23:37:00,62.0,61.0,30.01,North,0,0.0,1.0,96,0.90,,,0.92,,2013-07-12 03:37:00,
2013-07-11 23:45:00,62.0,61.0,30.01,North,0,0.0,0.0,97,0.41,,,0.92,,2013-07-12 03:45:00,
2013-07-11 23:54:00,62.0,61.0,30.01,North,0,0.0,1.0,96,0.90,,,0.92,,2013-07-12 03:54:00,